Tracking 19638 objects as of 20-May-2019
HD Live streaming from Space Station
objects crossing your sky now

RADUGA 1-5

Track RADUGA 1-5 now!
RADUGA 1-5 is classified as:


NORAD ID: 26477
Int'l Code: 2000-049A
Perigee: 35,776.2 km
Apogee: 35,823.2 km
Inclination: 12.4 °
Period: 1,436.4 minutes
Semi major axis: 42170 km
RCS: 10 m2 (large)
Launch date: August 28, 2000
Source: Commonwealth of Independent States (former USSR) (CIS)
Launch site: TYURATAM MISSILE AND SPACE COMPLEX (TTMTR)

Military communication.
aabbcc
Your satellite tracking list
Your tracking list is empty




NASA's NSSDC Master Catalog

Two Line Element Set (TLE):
1 26477U 00049A   19138.02201691 -.00000350  00000-0  00000+0 0  9990
2 26477  12.3987  27.2245 0005573 343.6025 336.3696  1.00250477 68548
Source of the keplerian elements: AFSPC